Location: Unspecified
(0.0000°N, 0.0000°E)
Time: 18:13:35
(UTC+01:00)

Atlas Centaur 2 - Visible Passes

Search period start: 13 February 2016 00:00
Search period end: 23 February 2016 00:00
Orbit: 459 x 1317 km, 30.4° (Epoch: 12 February)

Date Brightness Start Highest point End Pass type
(mag) Time Alt. Az. Time Alt. Az. Time Alt. Az.
13 Feb 4.9 04:16:16 15° SSE 04:16:16 15° SSE 04:17:56 10° SSE visible
14 Feb 5.1 04:13:44 11° S 04:13:44 11° S 04:14:12 10° SSE visible
22 Feb 3.3 20:27:46 10° N 20:29:10 14° N 20:29:10 14° N visible
